Last updated on Dec. 22, 2017, 12:19 a.m. UTC
1 24969U 97056E 17355.78420882 .01215506 -15138-5 86788-3 0 9991 2 24969 86.3816 239.3339 0298843 134.6544 227.9512 15.64280633 59557
Satellite is not in orbit.
PulseSat is the new satellites software and hardware trackering solution by Pulsely. Satellite Two Line Element Set source: US Air Force Space Command